#timestamp,LO_Frequency,Hit,StdDev 
1563706815.3,286047001.0,N
1563706835.2,286047000.0,N
1563706855.9,286047000.3,N
1563706875.7,286047000.7,N
1563706895.6,286046999.7,N
1563706915.4,286046999.9,N
1563706935.3,286046999.7,N
1563706955.1,286047002.3,N
1563706975.8,286046999.8,N
1563706995.7,286047002.4,N
1563707015.5,286047002.4,N
1563707035.4,286046999.8,N
1563707055.2,286047000.2,N
1563707075.0,286047002.2,N
1563707075.9,286047002.2,N
1563707095.8,286047000.2,N
1563707115.6,286047000.0,N
1563707135.4,286047000.4,N
1563707155.3,286047000.9,N
1563707175.1,286047000.9,N
1563707195.9,286046999.9,N
1563707215.7,286047001.3,N
1563707235.5,286047002.3,N
1563707255.4,286047002.5,N
1563707275.2,286047000.2,N
1563707295.1,286047002.3,N
1563707296.0,286047002.3,N
1563707315.8,286047002.3,N
1563707335.6,286047002.7,N
1563707355.5,286047001.6,N
1563707375.3,286047000.6,N
1563707425.2,286047001.6,E
1563707435.1,286047002.5,N
1563707455.8,286047002.7,P
1563707475.7,286047001.4,P
1563707495.5,286047004.1,Y
1563707515.4,286047000.4,P
1563707535.2,286047001.2,N
1563707555.0,286046998.7,N
1563707555.9,286046998.7,N
1563707575.8,286046999.3,N
1563707595.6,286046998.3,N
1563707615.5,286046999.3,N
1563707635.3,286046999.6,N
1563707655.1,286046997.7,N
1563707675.9,286046997.2,N
1563707695.7,286046997.3,N
1563707715.5,286046997.3,N
1563707735.4,286046997.3,N
1563707755.2,286046997.7,N
1563707775.1,286046996.8,N
1563707776.0,286046996.8,N
1563707795.8,286046999.3,N
1563707815.6,286046999.1,N
1563707835.5,286046996.9,N
1563707855.3,286046997.8,N
1563707875.2,286046996.8,N
1563707895.9,286046996.7,N
1563707915.7,286046999.0,N
1563707935.6,286046998.2,N
1563707955.4,286046998.6,N
1563707975.2,286046996.8,N
1563707995.1,286046997.4,N
1563707996.0,286046997.4,N
1563708015.8,286046997.0,N
1563708035.7,286046996.5,N
1563708055.5,286047001.1,N
1563708075.3,286046996.9,N
1563708095.2,286046997.0,N
1563708115.0,286046995.2,Y
1563708115.9,286046995.2,P
1563708135.8,286046998.5,N
1563708155.6,286046998.5,N
1563708175.4,286047001.0,N
1563708195.3,286047001.1,N
1563708215.1,286047000.9,N
1563708235.9,286047002.5,N
1563708255.7,286047002.6,N
1563708275.5,286047002.6,N
1563708295.4,286047002.2,N
1563708315.2,286047000.2,N
1563708335.0,286047001.2,N
1563708335.9,286047001.2,N
1563708355.8,286047001.2,N
1563708375.6,286046996.9,N
1563708395.5,286046997.0,N
1563708415.3,286046997.0,N
1563708435.1,286046996.6,N
1563708455.9,286046999.6,N
1563708475.7,286046999.2,N
1563708495.6,286047000.6,N
1563708515.4,286046999.8,N
1563708535.2,286047000.7,N
1563708555.1,286047000.9,N
1563708556.0,286047000.9,N
1563708575.8,286047001.9,N
1563708595.6,286047000.2,N
1563708615.5,286047000.5,N
1563708635.3,286047000.4,N
1563708655.2,286046998.2,N
1563708675.9,286046999.0,N
1563708695.7,286046996.9,N
1563708715.6,286046996.5,N
1563708735.4,286046996.8,N
1563708755.3,286046997.1,N
1563708775.1,286046999.1,N
1563708776.0,286046999.1,N
1563708795.8,286046998.9,N
1563708815.7,286046998.3,N
1563708835.5,286046998.1,N
1563708855.3,286046998.6,N
1563708875.2,286046999.5,N
1563708895.0,286047000.4,N
1563708895.9,286047000.4,N
1563708915.8,286046999.7,N
1563708935.6,286047002.1,N
1563708955.4,286047001.5,N
1563708975.3,286047001.6,N
1563708995.1,286047002.2,N
1563709015.9,286047002.1,N
1563709035.7,286047001.3,N
1563709055.5,286047003.9,N
1563709075.4,286047003.9,N
1563709095.2,286047004.2,N
1563709115.1,286047001.5,N
1563709116.0,286047001.5,N
1563709135.8,286047002.3,N
1563709155.6,286047002.2,N
1563709175.5,286047001.8,N
1563709195.3,286047002.8,N
1563709215.2,286047002.6,N
1563709235.9,286047000.5,N
1563709255.7,286047002.7,N
1563709275.6,286047005.0,N
1563709295.4,286047003.5,N
1563709315.2,286047002.5,N
1563709335.1,286047000.1,N
1563709336.0,286047000.1,N
1563709355.8,286046999.9,N
1563709375.7,286047000.5,N
1563709395.5,286047000.4,N
1563709415.3,286047000.4,N
1563709435.2,286047000.3,N
1563709455.0,286047000.4,N
1563709455.9,286047000.4,N
1563709475.8,286047000.8,N
1563709495.6,286046999.9,N
1563709515.4,286046999.8,N
1563709535.3,286046999.7,N
1563709555.1,286046999.8,N
1563709575.9,286046999.7,N
1563709595.7,286047000.5,N
1563709615.5,286047000.2,N
1563709635.4,286047000.2,N
1563709655.2,286046998.1,N
1563709675.0,286046998.7,N
1563709675.9,286046998.7,N
1563709695.8,286046999.5,N
1563709715.6,286046999.3,N
1563709735.5,286046998.7,N
1563709755.3,286046999.1,N
1563709775.1,286046999.3,N
1563709795.9,286046996.6,N
1563709815.7,286046996.5,N
1563709835.6,286046997.4,N
1563709855.4,286046995.3,Y
1563709875.2,286046995.1,P
1563709895.1,286046995.7,N
1563709896.0,286046995.7,N
1563709915.8,286046995.4,N
1563709935.7,286046996.0,N
1563709955.5,286046995.3,Y
1563709975.3,286047000.6,P
1563709995.2,286047000.8,N
1563710015.0,286046998.7,N
1563710015.9,286046998.7,N
1563710035.8,286046998.6,N
1563710055.6,286047001.0,N
1563710075.4,286047011.9,Y
1563710095.3,286047000.2,P
1563710115.1,286046999.7,N
1563710135.8,286047001.6,P
1563710155.7,286047001.0,N
1563710175.5,286046998.7,N
1563710195.4,286046998.1,N
1563710215.2,286047001.2,N
1563710235.0,286047000.9,N
1563710235.9,286047000.9,N
1563710255.8,286047000.9,N
1563710275.6,286047001.2,N
1563710295.5,286047000.4,N
1563710315.3,286047000.1,N
1563710335.1,286046999.7,N
1563710355.9,286046998.5,N
1563710375.7,286047001.0,N
1563710395.6,286047011.9,Y
